THORAD AGENA D DEB

Satellite information

Favourite Embed

Satellite Type and Status

DEBRISIN ORBIT

Key statistics

Satellite THORAD AGENA D DEB at a glance.

Uptime

20181

Days in orbit

Revolutions

≈ 13.7

Per day

Orbit

SSO

Sun Synchronous Orbit

Inclination

100.1

Latest

Satellite identification and parameters

Extended collection of information and parameters for THORAD AGENA D DEB.

Object identification

Identified? True

Debris? True

Object name: THORAD AGENA D DEB

International designator: 1970-025QN

Object number (NORAD): 22532

Object ID (CCSDS): 22532

Country: UNITED STATES OF AMERICA (US)

Current information (Y/N): Y

RCS size: SMALL

Orbital parameters

Period: 105.142 minutes

Inclination: 100.0796 deg

SMA: 7379.231 km

Apoapsis: 1004.346 km

Periapsis: 997.845 km

RAAN: 357.0217 deg

Eccentricy: 0.0004405

Argument of periapsis: 40.4803 deg

Mean anomaly: 349.0952 deg

Mean motion: 13.69575964 rev/day

Mean motion (dot): 0.0000072 rev/day2

B* drag term: 0.00088155 1/REarth

Two-line elements (TLE)

Creation date: July 8, 2025, 5:26 p.m.

Reference frame: TEME

Reference center: EARTH

Epoch: July 8, 2025, 10:01 a.m. UTC

TLE line 0: 0 THORAD AGENA D DEB

TLE line 1: 1 22532U 70025QN 25189.41754829 .00000720 00000-0 88155-3 0 9992

TLE line 2: 2 22532 100.0796 357.0217 0004405 40.4803 349.0952 13.69575964605587

Live tracking on map

Real-time ground track for satellite THORAD AGENA D DEB.

In-orbit conjunctions

A list of the most updated potential collisions computed for object THORAD AGENA D DEB.

Target Orbit TCA Probability of collision Miss distance Type
POLAR BEAR LEO 2025-02-23 23:47:01 0.0002797955 821.0 (m) PAYLOAD

Associated space launch

Meteorological research and development satellite

THORAD AGENA D DEB was lifted into orbit during the mission ‘Thorad SLV-2G Agena D | Nimbus 4’, on board a Thorad SLV-2G Agena D space rocket.

The launch took place on April 8, 1970, 8:17 a.m. from Space Launch Complex 2E.

For more information about the launch, click the button.

Launch to space Thorad SLV-2G Agena D | Nimbus 4
Thorad SLV-2G Agena D | Nimbus 4

Agency: N/A

Status: Launch Successful

Launch date: April 8, 1970, 8:17 a.m. UTC

Rocket: Thorad SLV-2G Agena D

Launch pad: Space Launch Complex 2E

Location: Vandenberg SFB, CA, USA

...

Latest news about this satellite

There are no fresh news available about this satellite. Check back as we update our databases every day.


Newsletter sign-up

Weekly statistics, charts and insights to help you stay on top of the space industry.